Weather in Novoalekseevskoe

Russia / Sverdlovsk Oblast     56°50′59″N   60°07′59″E
temp.,
°C
wind,
m/s
gust,
m/s
humid.,
%
clouds,
%
prec.,
mm/h
press.,
hPa
HPBL,
m
24 may, tue
tue2423:00+6s2695100 0.4 1003362
02:00+5ssw1397100 0.0 100487
05:00+5w1192100 0.0 100518
08:00+8sw237763 0.0 1006418
11:00+11s346698 0.0 1007948
14:00+13sse3567100 0.0 1007935
17:00+13se4577100 0.1 1008511
20:00+12se2587100 0.0 1009229
25 may, wed
wed2523:00+10e2496100 0.1 1009105
02:00+10e27100100 3.4 1008265
05:00+11se2899100 3.9 1007320
08:00+13sse3693100 0.0 1006281
11:00+17sse3777100 0.2 1006483
14:00+18sse51266100 0.6 10061617
17:00+18ssw51266100 1.3 10051760
20:00+15s5136989 0.4 1005674
26 may, thu
thu2623:00+8wsw4109447 0.4 1009466
02:00+7w3895100 0.0 1010398
05:00+8wsw3589100 0.0 1010500
08:00+6w597916 0.0 1012575
11:00+8wnw5763100 0.0 1012927
14:00+12nw4642100 0.0 10111360
17:00+13nw4643100 0.0 10111583
20:00+10nw595961 0.0 1011827
27 may, fri
fri2723:00+5wnw3981100 0.0 1012232
02:00+4wnw398559 0.0 1013241
05:00+3wnw39920 0.0 1013218
08:00+9wnw48652 0.0 1013741
11:00+13w474674 0.0 10111973
14:00+12wsw575779 0.1 10121463
17:00+13wsw475786 0.1 10121794
20:00+12wsw366794 0.0 1012319
28 may, sat
sat2823:00+8ssw2486100 0.0 101379
02:00+9s2484100 0.1 1012105
05:00+9sse2778100 0.1 1012173
08:00+13sse3560100 0.0 1011312
11:00+17ssw4743100 0.0 10112073
14:00+18sw574737 0.2 10111675
17:00+18wsw464799 0.2 10121988
20:00+15sw38699 0.1 1013690